Regional & State Weather Roundups


491 
ASUS44 KOUN 250110
RWROK 
WEATHER ROUNDUP FOR OKLAHOMA
NATIONAL WEATHER SERVICE NORMAN OK
800 PM CDT MON JUN 24 2019
NOTE: "FAIR" INDICATES FEW OR NO CLOUDS BELOW 12,000 FEET WITH NO
      SIGNIFICANT WEATHER AND/OR OBSTRUCTIONS TO VISIBILITY.
OKZ001>007-009>012-014-015-017-250200-
NORTHWEST OKLAHOMA AND THE PANHANDLE
  
CITY           SKY/WX    TMP DP  RH WIND       PRES   REMARKS
GAGE           SUNNY     82  56  40 S9        29.89R                  
GUYMON         SUNNY     83  52  34 S7        29.88S                  
ENID/WOODRING  PTCLDY    82  54  36 SE12      29.86S                  
$$
OKZ016-021>023-033>039-044-045-250200-
SOUTHWEST OKLAHOMA
  
CITY           SKY/WX    TMP DP  RH WIND       PRES   REMARKS
LAWTON/REGL    CLEAR     86  61  42 SE9       29.87S                  
LAWTON/FT SILL CLEAR     82  67  58 SE8       29.87R                  
FREDERICK      CLEAR     86  62  44 E15       29.84S                  
CLINTON        CLEAR     82  53  36 SE10      29.91R                  
HOBART         CLEAR     86  53  32 S13       29.89R                  
ALTUS AFB      CLEAR     85  50  29 SE13      29.87R                  
$$
OKZ018>020-024>031-250200-
CENTRAL OKLAHOMA
  
CITY           SKY/WX    TMP DP  RH WIND       PRES   REMARKS
OKLAHOMA CITY  PTCLDY    79  61  53 SE7       29.89R                  
OKC/WILEY POST CLEAR     82  60  47 SE10      29.89R                  
OKC/TINKER AFB CLEAR     80  65  59 SE6       29.90R                  
STILLWATER     CLEAR     81  58  45 SE7       29.88S                  
GUTHRIE        CLEAR     80  62  54 SE6       29.89R                  
$$
OKZ008-013-054>072-250200-
NORTHEAST OKLAHOMA
  
CITY           SKY/WX    TMP DP  RH WIND       PRES   REMARKS
TULSA          CLEAR     79  65  62 E3        29.87R                  
TULSA/JONES    CLEAR     80  62  54 S3        29.88S                  
PONCA CITY     CLEAR     81  58  45 SE12      29.87R                  
BARTLESVILLE   CLEAR     75  67  76 CALM      29.88F                  
MUSKOGEE       CLEAR     81  64  56 CALM      29.90R                  
$$
OKZ032-040>043-046>053-073>077-250200-
SOUTH CENTRAL/SOUTHEAST OKLAHOMA
  
CITY           SKY/WX    TMP DP  RH WIND       PRES   REMARKS
ARDMORE/DWNTWN CLEAR     81  66  61 SE5       29.88R                  
MCALESTER      CLEAR     81  68  64 CALM      29.90S                  
$$